STARLINK-2391, 47810

Orbit data source: Space-Track

STARLINK-2391, 47810 is a payload satellite owned by SpaceX/Seattle (US) in LEO that was launched on Thu, 11 Mar 2021 UTC via an FALCON 9 launch vehicle from the Air Force Eastern Test Range (AFETR). Payload-class satellites include a variety of spacecraft equipped with specific instruments for various scientific and technological missions. These include communications satellites like Starlink; space stations such as the ISS; scientific satellites like the Hubble; Earth observation satellites from companies like Planet Labs, Umbra, and HawkEye 360; GPS; miniature CubeSats for education and research; and military/defense satellites.

Loading next visibility...
Identifier
47810, 2021-018Z
Orbit
LEO
Country
Flag of USUS
Related business
Manufacturer
SpaceX/Seattle
Mission
Operational Commercial Communications
Bus & Motor
STARLINK, Unknown motor
Mass
260 kg wet, ~248 kg dry
Launch date (UTC)
2021-03-11 (5 years ago)
Launch vehicle
FALCON 9
Launch site
Air Force Eastern Test Range (AFETR)
Object type
Payload
Rocket body
Debris
Shape & HBR
Box + 1 Pan, 10.1 m
Radar Cross Section
13.562 m², Large (>1 m²)

Expand to show TLE details & history
Last TLE update: 8 hours ago

TLE from 8 hours ago
0 STARLINK-2391
1 47810U 21018Z   25293.07760161  .00011493  00000-0  78860-3 0  9991
2 47810  53.0547 172.8512 0001383 104.9536 255.1606 15.06427620255319
Epoch: 2025-10-20T01:51Z
TLE epoch observation values (Epoch: 2025-10-20T01:51:44.779Z)
Latitude
-0.00002°
Longitude
116.12952°
Altitude
548.252 km
Speed
7.589 km/s
True Right ascension
11h 31m 24s
True Declination
0° 00' 00"
Sunlit
Object was in daylight at epoch
Visualization orbit readout
Latitude
Unknown
Longitude
Unknown
Altitude
Unknown
Speed
Unknown
Apparent Right ascension
Unknown
Apparent Declination
Unknown
Sunlit
N/A
Visualization observer readout
Local Sidereal Time
04:25:31
Azimuth
Unknown
Elevation
Unknown
Doppler factor
Unknown
Orbital elements
Apogee altitude
548.355 km
Perigee altitude
546.44 km
Semi-major axis
6,925.535 km
Eccentricity
0.00014
Inclination
53.0547°
RAAN
172.8512°
Arg. of periapsis
104.9536°
True anomaly
255.14528°
Mean anomaly
255.1606°
Eccentric anomaly
255.15294°
Mean motion
3.76585 °/min
Orbital period
95.6 mins
BSTAR
0.0007886
Loading maneuver chart data...
Computing Atmospheric mass density...
Loading historical data...
Loading historical data...
Loading historical data...
Loading historical data...
Loading historical data...
Loading historical data...
Loading historical data...

Documentation

Showing up to 5 results
|